Temperature
20 19 19 20 25 29 29 29 29 28 28 26 26 26 26 25 25 24 21 20 20 20 19 19 19 19 19 19 19 19 19 19 19 19 19 19 19 19 19 19 19 19 19 19 19 19 19 19 19
20 19 20 23 29 29 29 29 28 28 27 26 26 26 26 24 23 22 21 20 20 20 19 19 19 19 19 19 19 19 19 19 19 19 19 19 19 19 19 19 19 19 19 19 19 19 18 18 19
20 20 23 29 30 29 29 29 28 27 26 26 26 25 25 23 22 21 20 20 20 20 19 19 19 19 19 19 19 19 19 19 19 19 19 19 19 19 19 19 19 18 18 19 19 18 18 18 18
20 22 26 30 30 29 29 29 29 28 27 26 26 26 23 21 21 21 20 20 20 20 19 19 19 19 19 19 19 19 19 19 19 19 19 19 19 19 19 19 19 18 18 19 18 18 18 18 18
21 26 30 30 30 30 30 29 28 29 28 26 26 26 24 21 21 20 20 20 20 20 19 19 19 19 19 19 19 19 19 19 19 19 19 19 19 19 19 19 18 18 18 18 18 18 18 18 18
26 29 31 30 30 30 30 29 29 29 27 26 26 26 23 21 21 20 20 20 20 20 19 19 19 19 19 19 19 19 19 19 19 19 19 19 19 19 19 19 18 18 18 18 18 18 18 18 18
28 31 31 31 30 30 30 29 29 29 28 27 26 26 23 21 21 20 20 20 20 20 19 19 19 19 19 19 19 19 19 19 19 19 19 19 19 19 19 19 18 18 18 18 18 18 18 18 18
27 31 32 31 31 30 30 29 28 28 27 26 26 26 24 21 21 20 20 20 19 19 19 19 19 19 19 19 19 19 19 19 19 19 19 19 19 19 19 18 18 18 18 18 18 18 18 18 18
27 32 31 31 31 30 30 29 28 27 27 26 25 25 23 21 21 20 20 20 19 19 19 19 19 19 19 19 18 18 19 19 19 19 19 18 18 18 18 18 18 18 18 18 18 18 18 18 18
30 32 31 31 31 31 30 29 28 28 27 26 25 23 22 21 21 21 21 20 20 19 19 19 19 19 19 18 18 18 18 18 18 18 18 18 18 18 18 18 18 18 18 18 18 18 18 18 18
31 31 32 32 31 30 30 29 29 29 28 27 25 23 22 21 21 21 21 21 20 20 19 19 19 19 19 19 18 18 18 18 18 18 18 18 18 18 18 18 18 18 18 17 18 17 17 17 18
31 32 31 31 30 30 30 30 29 28 28 26 25 24 22 22 22 22 21 21 20 19 19 19 18 18 18 18 18 18 18 18 18 18 18 18 18 18 18 18 18 18 18 17 17 17 17 17 17
31 31 31 31 30 30 30 29 29 28 26 25 24 23 23 22 22 21 21 20 20 19 19 19 18 18 18 18 18 18 18 18 18 18 18 18 18 18 18 18 18 18 18 18 17 17 17 17 17
31 31 31 31 30 30 30 29 29 27 26 25 24 24 23 23 22 21 21 20 20 19 19 19 18 18 19 18 18 18 18 18 18 18 18 18 18 18 18 18 18 18 18 18 17 17 17 17 17
31 32 32 31 31 30 31 30 29 27 26 25 24 24 23 23 22 21 21 20 20 19 19 19 19 18 18 18 18 18 18 18 18 18 18 18 18 18 18 18 18 18 18 18 18 17 17 17 17
32 32 32 32 31 31 31 30 29 26 26 26 25 24 23 22 22 21 21 20 20 19 19 19 19 18 19 18 18 18 18 18 18 18 18 18 18 18 18 18 18 18 18 18 18 18 17 17 18
32 32 32 32 32 31 31 30 29 27 27 26 25 24 23 22 22 21 21 20 19 19 19 19 19 18 18 18 18 18 18 18 18 18 18 18 18 18 18 18 18 18 18 18 18 18 18 17 18
32 32 32 31 32 31 31 31 30 27 27 27 26 25 24 23 22 21 20 20 19 19 19 19 19 19 19 18 19 18 18 18 18 18 18 18 18 18 18 18 18 18 18 18 18 17 18 18 18
32 32 32 31 31 31 31 30 30 28 28 27 26 25 24 23 22 21 21 20 19 19 19 19 19 19 19 18 18 18 18 18 18 18 18 18 18 18 18 18 18 18 18 18 18 18 18 18 17
31 31 32 31 31 31 31 30 30 29 28 27 26 25 25 24 23 22 21 20 20 19 19 19 19 19 19 19 19 19 18 18 18 18 18 18 18 18 18 18 18 18 18 18 17 18 18 18 18
31 31 31 31 31 31 31 30 30 29 28 27 26 26 25 24 23 22 21 21 20 20 19 19 19 19 19 19 19 19 19 18 18 18 18 18 18 18 18 18 18 18 18 18 18 18 18 18 18
31 32 31 31 31 31 31 31 31 30 29 28 27 26 26 25 24 23 22 21 20 20 20 19 20 20 20 19 19 19 19 19 19 18 18 18 18 18 18 18 18 18 18 18 18 18 17 17 18
31 31 31 31 31 31 31 31 31 30 29 29 28 26 26 25 24 23 22 21 21 20 20 20 20 20 19 19 19 19 19 18 18 18 18 18 18 18 18 18 18 18 18 18 18 18 17 18 18
30 30 30 31 31 30 30 30 30 30 29 29 28 26 26 25 24 23 22 21 21 20 20 20 20 20 19 19 19 19 19 19 18 18 18 18 18 18 18 18 18 18 18 18 18 18 18 18 17
30 30 30 30 30 30 30 30 30 30 29 29 28 27 25 25 24 23 22 21 21 20 20 20 20 20 20 19 19 19 19 19 18 18 18 18 18 18 18 18 18 18 18 18 18 18 18 17 17
30 31 30 29 30 30 29 30 30 29 28 27 27 26 25 25 24 23 23 22 21 20 20 20 20 20 19 19 19 19 19 19 18 18 18 18 18 18 18 18 18 18 18 18 18 18 18 18 17
30 30 32 31 30 30 30 30 29 29 28 27 26 26 25 24 24 23 22 22 21 20 20 20 20 20 20 19 19 19 19 19 18 18 18 18 18 18 18 18 18 18 18 18 18 18 18 17 17
30 31 30 30 28 29 29 30 30 28 28 27 26 25 25 24 23 23 22 22 21 20 20 19 19 20 20 19 19 19 19 19 19 19 18 18 18 18 18 18 18 18 18 18 18 17 17 17 17
29 29 29 30 30 29 29 30 30 28 28 27 26 25 24 24 23 23 22 21 21 20 20 19 19 19 19 19 19 19 19 19 19 18 18 18 18 18 18 18 17 17 17 17 17 17 17 17 17
29 29 29 29 28 29 29 29 29 28 28 27 26 24 24 23 23 22 21 21 20 20 20 19 19 19 19 19 19 19 19 18 18 18 18 18 18 18 18 17 17 17 17 17 17 17 17 17 17
Wind_Speed
12 9 5 4 4 4 11 10 9 8 7 7 7 6 7 7 6 5 5 6 7 8 10 13 12 12 14 15 15 16 17 17 17 17 17 18 18 18 18 17 17 17 17 16 15 15 14 14 14
9 6 4 4 2 9 12 10 10 10 8 6 6 6 6 7 6 5 5 6 7 8 9 11 13 12 13 15 15 16 16 16 17 17 17 18 18 17 17 17 16 16 16 15 15 14 13 13 13
7 5 4 1 8 11 11 9 9 8 6 5 5 6 6 6 5 4 6 7 8 8 9 12 13 13 13 14 14 15 15 16 17 17 17 17 17 17 17 16 15 15 15 15 14 13 13 12 12
4 4 3 4 12 12 9 7 6 5 6 6 4 6 6 5 3 5 7 8 8 8 9 12 13 13 14 14 14 14 14 15 16 16 16 16 16 16 16 15 14 15 15 15 14 13 12 12 11
4 3 2 9 12 10 8 7 5 5 5 5 5 7 7 6 6 7 8 8 8 8 9 13 13 13 14 14 13 13 14 14 15 15 15 15 16 16 16 16 14 14 14 14 13 12 11 11 10
3 2 5 10 10 8 7 6 5 6 6 5 5 6 6 6 7 7 8 8 8 8 9 12 13 13 14 14 13 13 14 14 14 14 14 14 15 15 15 15 15 14 14 13 12 11 11 10 9
3 3 7 8 8 8 6 5 5 5 6 5 3 5 6 7 7 8 8 8 7 7 8 9 11 13 14 13 13 13 13 14 14 13 13 13 14 14 15 15 15 14 13 12 11 11 10 9 8
4 2 7 8 7 8 6 5 5 5 6 5 3 4 5 8 8 9 9 8 8 7 7 7 9 11 11 13 13 13 13 13 13 13 13 13 13 13 14 15 14 14 13 12 11 10 8 7 7
3 1 8 8 6 6 4 4 4 4 6 5 4 6 9 12 10 9 8 8 8 8 7 6 7 8 9 10 12 12 13 12 12 12 13 12 11 11 12 12 13 13 12 11 10 9 8 7 8
2 4 8 6 5 4 3 3 3 3 4 5 6 9 12 12 10 9 8 7 7 7 7 6 6 7 7 8 9 9 9 10 9 9 10 9 8 8 9 12 12 12 12 12 10 9 9 8 7
1 4 5 5 4 3 3 3 2 2 3 3 6 10 12 11 10 8 8 7 7 7 7 6 5 5 5 6 6 6 6 7 8 9 9 8 7 7 7 8 10 11 12 9 10 9 6 4 3
1 2 2 3 3 2 3 3 3 4 6 5 6 10 12 11 10 8 8 7 7 7 6 5 6 4 5 5 5 6 5 5 6 7 8 7 5 5 5 5 6 7 7 5 5 4 4 3 2
1 1 1 1 2 2 2 3 3 4 5 6 9 10 11 11 10 8 7 7 7 6 6 5 5 5 4 4 4 5 5 5 5 6 6 6 5 5 5 4 4 5 6 6 4 4 3 2 2
1 1 1 1 2 2 2 2 2 3 5 8 9 9 10 9 9 8 7 7 7 6 5 5 5 5 5 4 4 4 5 5 4 5 6 6 5 5 4 4 4 4 5 5 4 3 3 2 2
3 2 2 1 1 1 2 2 2 5 6 8 8 8 9 8 8 7 7 7 7 6 5 5 5 5 5 5 5 5 5 5 4 5 6 6 5 5 4 4 4 4 5 5 4 4 3 3 3
6 5 3 1 0 1 4 1 4 6 7 7 7 8 8 7 7 7 7 6 6 6 6 5 4 5 5 4 4 4 4 4 4 5 5 6 5 5 4 4 4 4 4 4 3 3 3 2 2
6 4 2 1 1 1 2 0 5 6 6 6 7 8 8 8 7 7 7 7 6 6 6 5 4 5 5 4 3 3 3 3 4 4 5 5 6 6 5 4 3 5 4 4 4 3 2 2 2
4 3 2 1 1 2 3 1 4 5 5 6 6 7 7 7 8 8 8 7 7 7 6 6 6 5 5 5 4 3 4 4 4 4 4 5 5 6 5 4 4 5 4 4 3 3 3 3 3
5 6 5 2 1 3 3 3 3 6 6 6 6 7 7 7 7 8 9 8 8 7 7 6 6 6 5 5 4 4 5 4 4 4 5 6 5 6 5 4 4 5 4 4 4 4 5 4 3
8 8 6 2 1 4 4 4 3 5 6 5 6 7 7 7 8 8 9 9 9 8 8 7 7 7 7 5 4 4 3 3 4 3 4 5 6 6 6 6 5 5 4 5 5 5 4 4 4
9 9 7 5 4 6 6 6 5 5 5 5 5 5 7 7 8 9 10 10 9 9 9 7 8 8 7 6 5 4 3 3 3 4 4 5 6 6 6 6 5 5 5 5 6 5 6 4 4
9 6 7 7 8 5 6 7 4 5 6 6 6 6 6 8 8 9 10 10 10 10 9 8 8 8 8 7 6 6 5 4 3 3 3 4 5 6 6 7 6 5 5 5 6 6 5 6 4
6 4 7 8 9 9 8 8 4 4 5 5 6 7 7 8 9 9 9 10 9 9 9 8 8 8 8 7 6 6 5 4 3 3 3 3 4 5 6 6 6 6 5 6 6 5 6 5 5
5 6 6 9 10 11 7 8 5 2 3 3 4 6 7 7 8 8 9 9 8 8 8 8 8 7 7 7 6 6 5 4 4 4 3 4 3 4 5 6 6 6 6 6 6 6 8 6 6
8 9 7 8 9 8 4 7 4 1 1 2 3 4 5 5 7 8 9 9 9 9 8 8 8 7 7 7 7 7 6 6 6 6 5 5 4 4 4 5 6 6 6 6 7 7 7 8 7
10 11 9 8 8 5 5 6 2 1 1 0 1 3 4 5 5 6 7 8 9 9 8 8 8 7 7 7 7 6 6 6 5 6 5 5 4 4 4 5 5 6 7 7 7 7 8 7 8
9 10 10 10 10 9 5 4 3 2 2 2 2 4 4 4 5 5 6 7 8 8 8 8 8 7 7 7 6 6 6 6 5 5 5 5 4 4 5 5 6 6 7 7 7 7 7 7 8
8 8 7 9 8 10 8 8 4 3 3 3 3 3 3 4 5 5 5 6 7 7 8 8 7 7 7 6 5 5 5 5 5 5 4 4 4 4 4 5 6 6 6 7 7 7 7 7 7
7 8 8 9 9 9 8 3 1 3 2 3 3 3 3 4 4 4 4 4 5 6 7 7 6 6 6 5 5 5 4 5 5 5 4 4 4 3 4 4 5 5 6 6 6 7 7 8 7
8 9 10 10 9 10 11 4 4 3 2 2 3 3 3 2 3 3 4 4 4 5 6 6 5 6 5 5 5 5 4 4 4 5 5 5 5 5 4 4 4 5 5 6 6 7 7 7 7
Wind_Direction
176 181 203 233 234 82 60 55 49 52 58 55 50 48 50 37 24 62 81 94 106 121 129 134 132 133 136 138 138 138 137 136 138 139 139 137 135 133 132 132 132 132 132 129 128 126 125 124 122
171 180 222 246 25 66 62 52 55 57 68 73 65 61 61 58 51 82 103 105 119 124 131 133 131 135 136 138 139 139 139 139 140 142 143 141 138 136 135 134 134 133 133 131 130 129 128 126 125
177 215 259 292 52 51 57 55 66 73 70 62 70 59 52 56 64 86 108 124 122 124 129 129 135 137 136 138 139 139 139 140 141 142 142 142 141 140 137 136 136 135 134 133 132 132 131 128 128
200 225 235 63 63 55 52 59 69 74 74 61 72 80 72 49 52 99 123 133 125 128 133 130 137 137 137 138 140 140 140 140 141 141 141 143 142 142 139 137 139 139 139 138 138 137 134 131 131
236 257 105 72 65 60 59 59 58 54 60 66 70 79 77 62 81 109 126 130 126 128 130 133 138 139 138 139 142 142 140 139 140 140 140 141 143 143 141 140 141 142 142 142 141 140 137 136 137
249 254 58 63 66 62 64 62 54 54 69 77 81 83 76 91 100 108 119 126 125 132 134 135 142 143 142 142 144 143 142 141 142 143 143 144 146 147 146 144 144 146 145 144 143 142 140 140 141
301 21 58 61 66 68 57 50 38 51 66 65 81 82 96 102 103 108 113 112 113 126 134 138 145 147 149 148 146 144 143 142 144 147 146 149 150 150 149 148 149 150 148 148 147 146 147 146 148
296 313 66 62 57 63 66 64 50 45 70 79 79 87 108 122 120 115 111 105 102 114 124 130 139 144 149 148 148 146 145 146 148 151 152 154 155 154 155 156 153 153 152 151 150 149 148 151 154
263 29 56 48 45 59 70 69 72 69 95 95 75 72 107 128 129 122 114 109 106 110 114 119 131 141 143 142 145 150 152 153 157 156 156 162 160 155 160 152 155 157 155 154 152 151 153 164 166
266 42 50 36 35 48 65 62 88 110 104 105 105 104 120 133 138 132 125 121 119 117 117 120 128 136 137 136 140 151 152 152 158 154 158 160 155 157 153 152 160 160 161 160 157 159 168 188 170
300 25 36 43 42 44 77 82 85 84 78 84 122 133 138 142 144 139 131 127 123 123 120 125 128 129 128 132 140 141 142 148 153 154 158 156 157 158 156 158 162 163 168 166 162 175 174 172 157
274 21 11 33 44 49 71 83 67 50 51 79 126 141 146 152 151 147 139 133 126 124 126 130 131 133 133 135 138 146 148 152 150 150 162 159 160 162 153 158 162 167 166 161 173 170 159 159 168
238 350 18 41 69 75 88 79 64 62 76 105 128 142 150 154 153 149 143 139 131 131 133 131 133 138 143 147 159 150 153 157 153 152 158 164 164 161 156 156 164 169 163 167 173 166 157 172 179
326 301 261 154 110 118 106 89 75 76 112 125 134 145 152 154 153 151 150 146 142 141 141 141 143 147 156 164 165 159 158 160 163 160 163 174 169 162 167 165 164 172 176 172 173 169 177 202 203
236 238 191 161 194 182 195 99 73 114 131 135 140 145 152 157 159 161 159 156 152 150 149 153 158 160 165 168 168 166 169 164 166 163 167 178 177 168 170 169 174 178 181 182 186 182 193 206 216
226 231 221 151 194 214 247 73 107 136 145 143 147 151 156 162 167 165 164 162 157 155 156 165 167 157 159 163 173 170 175 171 173 172 172 181 180 178 183 182 179 174 186 191 185 195 197 212 234
222 233 238 158 167 217 247 62 129 153 159 156 160 162 165 170 175 172 172 170 165 163 164 169 175 169 167 165 172 175 178 187 184 179 182 181 187 189 195 192 182 188 194 196 201 185 202 209 225
238 251 255 264 157 241 244 231 154 170 175 168 167 167 172 179 183 179 178 174 170 168 170 173 178 178 180 179 181 183 185 188 191 190 187 191 192 193 203 195 188 199 198 200 201 197 209 214 220
266 267 270 274 244 262 260 257 207 181 189 184 181 181 183 186 179 179 180 179 174 173 177 180 184 184 192 190 192 187 187 189 186 190 188 193 197 195 203 207 192 204 203 205 204 201 205 208 214
247 257 260 242 227 265 264 258 228 191 198 200 197 193 193 184 181 183 185 184 184 182 186 187 190 191 199 197 205 204 198 198 191 196 188 199 198 197 198 204 206 202 202 204 205 208 218 214 208
245 255 264 266 255 235 258 240 210 193 201 206 211 209 203 193 187 185 185 188 188 189 193 196 199 197 199 197 198 191 186 201 197 199 199 206 206 204 209 207 217 214 216 207 211 212 218 226 225
246 251 263 254 252 252 252 269 213 200 207 213 215 215 211 198 191 187 185 189 192 193 191 195 199 197 195 196 201 197 198 203 204 207 203 200 205 210 210 213 214 216 222 215 219 210 217 222 225
258 262 252 250 254 263 247 267 247 195 232 228 218 219 214 201 194 188 188 188 190 192 190 188 190 191 190 195 198 205 215 213 208 211 202 212 204 208 212 216 217 215 222 220 227 218 226 227 232
219 226 229 238 249 252 253 262 266 229 263 260 219 212 211 204 194 186 184 183 186 187 186 184 183 186 187 193 198 202 214 221 227 226 227 222 216 212 217 221 218 220 221 217 222 223 223 231 237
218 234 236 235 235 247 222 253 274 301 287 279 230 206 201 199 193 185 181 181 182 184 185 182 180 184 189 195 203 205 212 219 225 232 230 238 238 227 219 226 220 222 219 220 221 224 230 227 227
224 240 252 264 264 254 205 246 244 90 119 320 172 167 173 179 182 182 182 180 180 182 184 183 181 183 187 195 203 208 214 222 228 232 240 238 245 245 238 231 229 227 225 226 223 227 226 225 227
223 237 258 263 267 270 246 228 206 166 153 147 141 150 162 168 166 164 169 173 175 181 182 183 180 181 185 192 194 198 209 223 229 227 232 240 246 245 240 238 237 235 230 230 228 231 232 229 231
249 243 240 247 253 259 248 239 236 193 191 167 154 149 159 164 158 156 158 168 170 173 176 178 179 183 186 187 195 197 204 213 220 229 234 244 251 255 255 251 248 243 240 237 236 237 234 234 236
207 223 235 246 254 264 266 246 119 173 182 174 166 153 149 159 159 153 156 159 166 166 168 172 178 181 186 191 195 205 207 212 219 225 234 239 248 251 252 252 250 245 240 238 237 242 236 236 238
232 233 230 241 243 253 271 265 111 126 133 141 135 122 116 132 140 141 147 149 153 162 167 169 179 186 193 193 195 200 209 212 219 224 232 237 241 243 243 244 245 249 243 240 238 240 243 238 236
Height
1500 1501 1502 1503 1497 1489 1491 1490 1488 1489 1491 1496 1497 1496 1497 1498 1500 1507 1509 1506 1507 1507 1508 1508 1509 1511 1513 1515 1516 1518 1520 1522 1524 1526 1528 1531 1533 1535 1537 1539 1541 1543 1545 1547 1549 1551 1552 1554 1555
1502 1502 1504 1501 1489 1494 1496 1490 1492 1494 1497 1498 1498 1499 1499 1502 1505 1507 1508 1508 1508 1509 1510 1510 1511 1513 1515 1517 1518 1520 1522 1524 1526 1528 1530 1532 1534 1537 1539 1541 1543 1545 1547 1549 1551 1552 1554 1555 1556
1503 1503 1504 1492 1490 1495 1497 1492 1494 1497 1499 1499 1500 1501 1502 1505 1507 1508 1508 1508 1509 1510 1512 1512 1513 1515 1517 1518 1520 1522 1524 1526 1528 1530 1532 1534 1536 1538 1541 1543 1545 1547 1548 1550 1552 1554 1555 1557 1558
1505 1505 1501 1491 1493 1493 1493 1493 1496 1497 1499 1500 1500 1502 1506 1509 1509 1509 1508 1510 1511 1512 1513 1514 1515 1516 1518 1520 1522 1524 1525 1527 1529 1532 1534 1536 1538 1540 1542 1544 1546 1548 1550 1551 1553 1555 1557 1558 1559
1506 1502 1491 1491 1493 1493 1493 1495 1497 1496 1499 1501 1502 1503 1507 1510 1509 1509 1509 1510 1512 1513 1515 1516 1516 1518 1520 1521 1523 1525 1526 1528 1531 1533 1535 1537 1539 1541 1543 1545 1547 1549 1551 1553 1555 1556 1558 1559 1561
1504 1495 1491 1496 1495 1494 1494 1497 1497 1498 1500 1503 1504 1504 1509 1511 1510 1510 1510 1511 1512 1514 1516 1517 1518 1519 1521 1523 1524 1526 1528 1530 1532 1534 1536 1538 1541 1542 1544 1546 1548 1550 1552 1554 1555 1557 1559 1560 1562
1503 1492 1492 1493 1495 1495 1496 1498 1498 1498 1500 1503 1505 1505 1510 1512 1512 1512 1512 1512 1513 1514 1516 1518 1520 1521 1522 1524 1525 1527 1529 1531 1533 1535 1537 1540 1542 1543 1545 1547 1549 1550 1552 1554 1556 1558 1559 1561 1562
1503 1493 1490 1491 1495 1496 1497 1499 1501 1501 1503 1506 1506 1506 1510 1514 1514 1514 1514 1515 1514 1515 1517 1519 1521 1523 1524 1526 1527 1529 1531 1533 1535 1536 1538 1540 1542 1544 1546 1548 1549 1551 1553 1555 1557 1558 1560 1561 1562
1503 1492 1494 1494 1495 1495 1497 1499 1502 1504 1505 1507 1508 1509 1512 1514 1515 1516 1517 1517 1517 1517 1519 1521 1523 1524 1526 1528 1528 1530 1532 1534 1535 1537 1539 1541 1544 1545 1547 1549 1550 1552 1554 1555 1557 1559 1560 1561 1562
1500 1493 1495 1494 1494 1495 1498 1499 1502 1503 1504 1507 1509 1512 1514 1515 1517 1517 1518 1519 1519 1520 1522 1523 1524 1525 1527 1529 1530 1532 1533 1535 1536 1538 1540 1542 1544 1546 1548 1549 1551 1553 1554 1556 1557 1559 1560 1561 1562
1498 1495 1494 1495 1497 1497 1498 1500 1501 1501 1502 1506 1509 1512 1514 1516 1518 1519 1520 1521 1522 1523 1523 1525 1525 1526 1528 1529 1531 1532 1534 1535 1537 1539 1541 1542 1544 1546 1548 1549 1551 1553 1555 1556 1557 1559 1560 1561 1562
1498 1496 1497 1497 1498 1498 1498 1500 1501 1503 1505 1508 1510 1512 1515 1517 1519 1520 1521 1523 1524 1524 1525 1526 1527 1527 1528 1530 1532 1533 1534 1536 1538 1539 1541 1543 1545 1546 1548 1549 1551 1553 1555 1556 1557 1559 1560 1561 1562
1497 1497 1498 1498 1499 1499 1500 1501 1503 1505 1508 1509 1511 1513 1515 1517 1520 1522 1523 1524 1525 1526 1526 1527 1527 1528 1529 1530 1532 1534 1535 1537 1538 1540 1541 1543 1545 1546 1548 1549 1551 1553 1555 1556 1557 1558 1560 1560 1561
1497 1497 1497 1497 1498 1499 1500 1501 1504 1507 1509 1511 1512 1514 1516 1518 1521 1522 1524 1525 1526 1526 1527 1528 1528 1528 1529 1530 1532 1534 1535 1536 1539 1540 1541 1543 1545 1546 1548 1550 1551 1553 1555 1556 1557 1559 1559 1560 1561
1498 1496 1495 1496 1497 1498 1499 1501 1503 1507 1509 1511 1513 1515 1517 1519 1521 1522 1524 1525 1526 1527 1528 1528 1529 1529 1529 1531 1532 1534 1536 1537 1539 1540 1541 1543 1545 1546 1548 1550 1551 1553 1554 1555 1557 1558 1559 1560 1561
1494 1493 1495 1494 1495 1497 1498 1502 1503 1507 1509 1510 1513 1515 1517 1519 1521 1523 1524 1525 1526 1527 1528 1528 1530 1530 1530 1531 1532 1534 1536 1537 1538 1540 1541 1542 1544 1545 1547 1549 1551 1552 1554 1555 1556 1558 1559 1560 1560
1491 1494 1495 1494 1494 1495 1496 1499 1503 1506 1508 1510 1512 1515 1517 1519 1521 1522 1524 1525 1526 1526 1527 1528 1529 1530 1531 1531 1532 1533 1535 1536 1538 1540 1541 1542 1543 1545 1547 1548 1550 1551 1553 1555 1556 1557 1558 1558 1559
1495 1493 1494 1495 1493 1494 1495 1496 1500 1504 1506 1508 1511 1514 1516 1517 1519 1521 1523 1524 1525 1526 1527 1528 1529 1530 1530 1531 1532 1533 1534 1536 1537 1539 1540 1541 1542 1544 1546 1548 1549 1551 1552 1554 1555 1555 1556 1557 1558
1491 1492 1494 1493 1492 1494 1495 1495 1496 1502 1504 1506 1509 1512 1514 1516 1518 1520 1521 1522 1524 1524 1525 1526 1528 1529 1529 1531 1532 1533 1534 1535 1536 1537 1538 1540 1541 1543 1544 1547 1548 1549 1551 1552 1553 1554 1555 1556 1557
1492 1494 1492 1491 1492 1494 1493 1494 1493 1498 1501 1504 1506 1509 1511 1513 1516 1517 1519 1521 1522 1523 1524 1525 1526 1527 1528 1529 1531 1532 1533 1534 1535 1537 1537 1538 1540 1541 1543 1544 1546 1548 1549 1550 1551 1552 1554 1555 1556
1492 1492 1491 1493 1492 1491 1493 1494 1492 1495 1499 1502 1504 1506 1508 1510 1512 1514 1516 1518 1520 1521 1522 1523 1524 1525 1527 1528 1530 1531 1532 1533 1535 1535 1536 1537 1538 1539 1541 1543 1545 1546 1547 1549 1549 1550 1551 1553 1554
1492 1487 1490 1492 1494 1491 1493 1498 1490 1490 1495 1498 1501 1503 1505 1508 1510 1512 1514 1516 1518 1519 1521 1521 1522 1523 1525 1527 1529 1530 1531 1533 1534 1534 1535 1535 1536 1537 1539 1541 1543 1544 1545 1546 1547 1549 1549 1550 1551
1489 1488 1489 1489 1490 1492 1490 1495 1489 1488 1491 1492 1496 1500 1502 1505 1507 1509 1511 1513 1515 1517 1519 1519 1519 1521 1524 1526 1527 1528 1530 1532 1533 1533 1534 1534 1535 1536 1538 1539 1540 1541 1543 1544 1545 1546 1547 1548 1548
1489 1490 1489 1487 1486 1500 1492 1496 1493 1486 1489 1490 1493 1497 1500 1502 1504 1507 1509 1511 1513 1515 1517 1518 1518 1519 1522 1524 1526 1527 1528 1530 1532 1532 1533 1534 1535 1535 1536 1537 1538 1539 1540 1541 1542 1543 1544 1544 1545
1488 1492 1499 1501 1500 1497 1488 1494 1493 1485 1487 1489 1491 1494 1497 1500 1502 1504 1507 1508 1510 1512 1514 1516 1517 1518 1520 1522 1524 1525 1526 1528 1530 1531 1532 1533 1534 1534 1534 1535 1535 1536 1537 1538 1539 1539 1541 1541 1542
1486 1486 1499 1508 1501 1491 1490 1492 1487 1485 1488 1490 1491 1493 1496 1498 1500 1502 1504 1506 1507 1510 1511 1513 1514 1516 1518 1519 1521 1523 1524 1526 1528 1529 1530 1530 1531 1532 1532 1532 1532 1533 1534 1535 1536 1537 1537 1538 1538
1485 1484 1478 1486 1490 1494 1486 1485 1484 1484 1487 1490 1491 1493 1495 1497 1499 1500 1502 1504 1505 1507 1509 1511 1512 1514 1516 1517 1519 1520 1522 1523 1525 1526 1527 1528 1528 1529 1529 1529 1529 1530 1530 1531 1532 1533 1533 1534 1534
1481 1479 1483 1487 1502 1503 1491 1488 1484 1485 1486 1488 1490 1492 1494 1496 1498 1499 1501 1502 1504 1506 1507 1509 1510 1512 1514 1515 1517 1518 1519 1520 1521 1522 1523 1524 1525 1525 1525 1526 1526 1527 1527 1527 1528 1529 1529 1530 1530
1485 1485 1483 1483 1484 1496 1497 1488 1475 1481 1483 1486 1489 1492 1494 1495 1496 1498 1499 1501 1503 1505 1506 1507 1509 1510 1512 1513 1514 1516 1516 1517 1518 1519 1520 1520 1521 1521 1522 1522 1522 1523 1523 1524 1524 1525 1525 1526 1526
1479 1479 1482 1490 1492 1488 1489 1486 1475 1479 1482 1486 1488 1492 1494 1495 1496 1497 1499 1500 1502 1503 1505 1506 1507 1508 1510 1511 1512 1513 1514 1515 1515 1516 1516 1517 1517 1518 1518 1518 1519 1519 1519 1520 1521 1521 1522 1522 1522